[[{"header":{"parameterUnit":"m.s-1","parameterCategory":1,"la1":30.2991,"la2":30.254,"lo1":-89.0895,"lo2":-89.0444,"dy":0.0017,"dx":0.0017,"nx":28,"ny":28,"refTime":"2024-08-27T09:00:00:Z","depth":0,"parameterNumber":2,"parameterNumberName":"U-component_of_WINDS"},"data":[0,0,0,0,0,0,0,0,0,0,0,0,0,0,0,0,0,0,0,0,0,0,0,0,0,0,0,0,0,0,0,0,0,0,0,0,0,0,0,0,0,0,0,0,0,0,0,0,0,0,0,0,0,0,0,0,0,0,-3.8558,-3.8558,0,-3.8557,-3.8557,-3.8557,-3.8455,-3.8452,-3.8449,-3.8447,-3.8445,-3.8448,-3.845,0,0,0,0,0,0,0,0,0,0,0,0,0,-3.8469,-3.8472,-3.8558,-3.8558,-3.8558,-3.8557,-3.8557,-3.8557,-3.8455,-3.8452,-3.8449,-3.8445,-3.8445,-3.8448,-3.8451,0,0,0,0,0,0,0,0,0,0,0,0,0,-3.8492,-3.8472,-3.8558,-3.8507,-3.8502,-3.8557,-3.8557,-3.8557,-3.8456,-3.8452,-3.8448,-3.8444,-3.8444,-3.8447,-3.8451,-3.8554,0,0,-3.8462,-3.8464,0,0,0,0,0,0,0,0,-3.8491,-3.8496,-3.8514,-3.851,-3.8505,-3.8502,-3.8525,-3.8556,-3.8457,-3.8473,-3.8447,-3.8442,-3.8467,-3.8469,-3.8478,-3.8554,-3.8554,-3.8463,-3.8465,-3.8466,-3.8467,0,0,0,0,0,0,0,-3.849,-3.8495,-3.8557,-3.8515,-3.8509,-3.8483,-3.8482,-3.8531,-3.8493,-3.8472,-3.8464,-3.8466,-3.8464,-3.8474,-3.8477,-3.8554,-3.8462,-3.8466,-3.8468,-3.8469,-3.8713,-3.8717,0,0,0,0,0,0,-3.8495,-3.8494,-3.8557,-3.8557,-3.8488,-3.8488,-3.8487,-3.8507,-3.8492,-3.8486,-3.8469,-3.8461,-3.847,-3.8473,-3.8476,-3.8593,-3.8466,-3.847,-3.8472,-3.8709,-3.8714,-3.8718,0,0,0,0,0,0,-3.8494,-3.8502,-3.8557,-3.8524,-3.8529,-3.8494,-3.8517,-3.8509,-3.8519,-3.849,-3.8483,-3.8486,-3.8467,-3.8471,-3.8535,-3.8592,-3.8471,-3.8475,-3.8704,-3.871,-3.8716,-3.8831,0,0,0,0,0,0,-3.8492,-3.8502,-3.8541,-3.8525,-3.8531,-3.8616,-3.8521,-3.8512,-3.8526,-3.8515,-3.8504,-3.8499,-3.8464,-3.853,-3.8539,-3.8595,-3.8478,-3.8698,-3.8707,-3.8714,-3.8822,-3.884,-3.8856,0,0,0,0,0,-3.8489,-3.8573,-3.8543,-3.8551,-3.8579,-3.862,-3.8623,-3.8582,-3.8531,-3.8569,-3.8551,-3.8499,-3.8586,-3.8538,-3.8546,-3.8605,-3.8694,-3.8704,-3.8714,-3.8814,-3.8837,-3.8856,0,0,0,0,0,0,-3.8596,-3.857,-3.8537,-3.8619,-3.8623,-3.8603,-3.865,-3.8607,-3.8625,-3.8614,-3.8562,-3.8561,-3.8632,-3.8626,-3.8572,-3.8703,-3.8631,-3.8643,-3.8704,-3.8725,-3.8742,-3.8741,-3.8481,0,0,0,0,0,-3.863,-3.8665,-3.8641,-3.8716,-3.8719,-3.8685,-3.8701,-3.8669,-3.867,-3.8671,-3.8657,-3.866,-3.8688,-3.8707,-3.8731,-3.8822,-3.8816,-3.8866,-3.8884,-3.8898,-3.8907,-3.8952,-3.8973,-3.875,-3.875,-3.875,0,0,-3.8698,-3.8689,-3.8714,-3.8737,-3.8736,-3.8773,-3.8686,-3.873,-3.8756,-3.8677,-3.8736,-3.8727,-3.8727,-3.8804,-3.8837,-3.88,-3.8969,-3.891,-3.8922,-3.8923,-3.8965,-3.8986,-3.9004,-3.8756,-3.8755,-3.8754,0,0,-3.8842,-3.884,-3.89,-3.8901,-3.8901,-3.8877,-3.8892,-3.8879,-3.8869,-3.8928,-3.8869,-3.89,-3.895,-3.8951,-3.8958,-3.9104,-3.9056,-3.9114,-3.9202,-3.9247,-3.9264,-3.928,-3.9328,-3.9347,-3.9124,-3.9125,-3.9125,0,-3.8927,-3.8981,-3.8937,-3.8984,-3.8995,-3.8926,-3.8986,-3.8989,-3.8997,-3.9006,-3.8965,-3.9024,-3.902,-3.9095,-3.9131,-3.914,-3.9154,-3.9112,-3.9266,-3.9281,-3.9294,-3.934,-3.9359,-3.9131,-3.913,-3.913,-3.9129,0,-3.9084,-3.9123,-3.9172,-3.918,-3.9197,-3.9251,-3.9215,-3.9237,-3.9205,-3.9186,-3.9245,-3.9238,-3.9258,-3.9274,-3.9243,-3.9345,-3.9322,-3.9275,-3.92,-3.9323,-3.9365,-3.9382,-3.9141,-3.9138,-3.9136,-3.9135,0,0,-3.9293,-3.9277,-3.9295,-3.9297,-3.9292,-3.9321,-3.9372,-3.9391,-3.941,-3.9419,-3.9458,-3.9502,-3.9458,-3.9466,-3.9435,-3.9475,-3.9587,-3.9422,-3.9421,-3.945,-3.9696,-3.9729,-3.975,-3.9557,-3.956,-3.9563,-3.9695,0,-3.9429,-3.9513,-3.9475,-3.9563,-3.9597,-3.9533,-3.9577,-3.9578,-3.9562,-3.9588,-3.9571,-3.9601,-3.9542,-3.9547,-3.9584,-3.9566,-3.9635,-3.9556,-3.9591,-3.9593,-3.9589,-3.9772,-3.9807,-3.9932,-3.9711,-3.9714,-3.9716,0,-3.9598,-3.9612,-3.9704,-3.9691,-3.9704,-3.9744,-3.9758,-3.9785,-3.9785,-3.9771,-3.9781,-3.974,-3.9788,-3.9718,-3.9782,-3.9729,-3.9742,-3.9736,-3.974,-3.9738,-3.9659,-3.9772,-3.9971,-3.9988,-3.9742,-3.974,-3.9738,0,-3.9736,-3.9779,-3.9838,-3.9843,-3.9831,-3.986,-3.9857,-3.9853,-3.9867,-3.9881,-3.9889,-3.9908,-3.9918,-3.9934,-3.9899,-3.9852,-3.9968,-3.9895,-3.9955,-3.9956,-3.9978,-3.9977,-4.0178,-3.9994,-3.9994,-3.9993,-3.9993,0,-3.9889,-3.9947,-3.99,-3.9936,-3.9998,-3.9956,-4.0018,-4.0008,-4.0005,-4.0038,-3.9986,-4.0017,-3.9972,-3.9999,-3.9973,-4.0028,-4.0034,-4.0023,-4.0014,-4.0025,-4.0026,-4.003,-4.0018,-3.9998,-3.9997,-3.9996,-3.9996,0,-4.0052,-4.0024,-4.0084,-4.0068,-4.0065,-4.0112,-4.0097,-4.013,-4.0111,-4.0153,-4.016,-4.0131,-4.016,-4.0128,-4.0156,-4.0138,-4.0212,-4.0193,-4.0212,-4.0205,-4.0265,-4.0259,-4.0473,-4.0497,-4.0301,-4.0303,-4.0305,0,-4.015,-4.0193,-4.0181,-4.0199,-4.0199,-4.0229,-4.0242,-4.0203,-4.0219,-4.0223,-4.0255,-4.028,-4.0297,-4.0347,-4.0327,-4.0348,-4.0326,-4.04,-4.0329,-4.0338,-4.0323,-4.0319,-4.0322,-4.0413,-4.0416,-4.0418,-4.0419,0,-4.0326,-4.0309,-4.0331,-4.0349,-4.0367,-4.0379,-4.0386,-4.0404,-4.0363,-4.0384,-4.0413,-4.0427,-4.0454,-4.0479,-4.0494,-4.049,-4.0447,-4.0443,-4.0457,-4.0466,-4.0473,-4.0466,-4.0247,-4.0437,-4.0435,-4.0434,-4.0433,-4.0432,-4.0456,-4.049,-4.0487,-4.0513,-4.0515,-4.0523,-4.0552,-4.0537,-4.0561,-4.0579,-4.0555,-4.0591,-4.059,-4.0605,-4.0606,-4.0633,-4.0601,-4.0623,-4.0628,-4.0633,-4.064,-4.0473,-4.0636,-4.0636,-4.0635,-4.0635,-4.0634,0,-4.0625,-4.062,-4.0645,-4.0657,-4.0678,-4.0638,-4.0644,-4.0663,-4.0695,-4.0698,-4.0716,-4.0749,-4.0773,-4.0756,-4.0776,-4.0801,-4.0782,-4.0807,-4.0803,-4.0802,-4.0669,-4.0653,-4.0822,-4.0822,-4.0822,-4.0822,-4.0822,-4.0822,-4.0715,-4.077,-4.0753,-4.0808,-4.0803,-4.0836,-4.0843,-4.085,-4.0852,-4.0891,-4.091,-4.09,-4.0894,-4.0914,-4.0933,-4.0928,-4.0936,-4.0968,-4.0955,-4.083,-4.0812,-4.0794,-4.0778,-4.0971,-4.0971,-4.1085,-4.1086,-4.1087]},{"header":{"parameterUnit":"m.s-1","parameterCategory":1,"la1":30.2991,"la2":30.254,"lo1":-89.0895,"lo2":-89.0444,"dy":0.0017,"dx":0.0017,"nx":28,"ny":28,"refTime":"2024-08-27T09:00:00:Z","depth":0,"parameterNumber":3,"parameterNumberName":"V-component_of_WINDS"},"data":[0,0,0,0,0,0,0,0,0,0,0,0,0,0,0,0,0,0,0,0,0,0,0,0,0,0,0,0,0,0,0,0,0,0,0,0,0,0,0,0,0,0,0,0,0,0,0,0,0,0,0,0,0,0,0,0,0,0,0.1287,0.1288,0,0.1395,0.1396,0.1397,0.1415,0.1414,0.1413,0.1412,0.1522,0.1526,0.1529,0,0,0,0,0,0,0,0,0,0,0,0,0,0.1097,0.11,0.1287,0.1288,0.129,0.1394,0.1396,0.1397,0.1415,0.1414,0.1413,0.1412,0.1521,0.1525,0.153,0,0,0,0,0,0,0,0,0,0,0,0,0,0.119,0.1102,0.1287,0.1311,0.1314,0.1394,0.1396,0.1398,0.1416,0.1414,0.1413,0.1411,0.1519,0.1525,0.153,0.1593,0,0,0.1548,0.155,0,0,0,0,0,0,0,0,0.1184,0.1196,0.1306,0.131,0.1313,0.139,0.1369,0.1463,0.1416,0.1377,0.1412,0.1411,0.1479,0.1488,0.1511,0.1598,0.1603,0.1548,0.1552,0.1554,0.1556,0,0,0,0,0,0,0,0.1178,0.1192,0.1329,0.1308,0.1312,0.1317,0.1329,0.1387,0.1435,0.138,0.1382,0.1394,0.1481,0.1506,0.1514,0.1604,0.1548,0.1553,0.1557,0.1559,0.175,0.1752,0,0,0,0,0,0,0.1167,0.1186,0.1326,0.1333,0.1244,0.1321,0.1334,0.1367,0.1434,0.1443,0.1396,0.1395,0.1497,0.1507,0.1518,0.1597,0.1554,0.1559,0.1563,0.1748,0.175,0.1752,0,0,0,0,0,0,0.1163,0.1179,0.1322,0.126,0.1279,0.1326,0.1362,0.137,0.1395,0.1445,0.1454,0.1412,0.1496,0.151,0.1575,0.1601,0.1562,0.1567,0.1746,0.1749,0.1751,0.1754,0,0,0,0,0,0,0.1157,0.1178,0.1202,0.1261,0.1282,0.1377,0.1364,0.1373,0.1404,0.1405,0.1463,0.1472,0.1496,0.1566,0.158,0.1608,0.1571,0.1744,0.1748,0.1751,0.1752,0.1757,0.1761,0,0,0,0,0,0.1151,0.1198,0.1203,0.122,0.1313,0.1378,0.139,0.1417,0.1406,0.1431,0.1464,0.147,0.1596,0.1573,0.1589,0.1618,0.1743,0.1747,0.175,0.175,0.1756,0.1761,0,0,0,0,0,0,0.114,0.1206,0.1212,0.128,0.1323,0.1381,0.1413,0.1422,0.1469,0.1467,0.1499,0.1512,0.1575,0.1603,0.1577,0.1684,0.1668,0.1676,0.1663,0.1669,0.1673,0.1665,0.1576,0,0,0,0,0,0.1146,0.1193,0.1248,0.1303,0.1324,0.1365,0.1394,0.1412,0.1458,0.1476,0.1513,0.1558,0.1608,0.164,0.1688,0.1756,0.177,0.1785,0.1789,0.1792,0.1798,0.1838,0.1845,0.1765,0.1765,0.1765,0,0,0.1158,0.12,0.1228,0.1302,0.1337,0.1386,0.138,0.1431,0.1468,0.1484,0.1547,0.1577,0.1628,0.1696,0.1727,0.1721,0.1824,0.1797,0.1799,0.1804,0.1843,0.185,0.1857,0.1767,0.1767,0.1766,0,0,0.1205,0.1241,0.1291,0.1327,0.1382,0.1409,0.1421,0.1478,0.1498,0.1562,0.1576,0.162,0.1704,0.1741,0.1771,0.1834,0.1841,0.1848,0.187,0.1909,0.1915,0.1921,0.1944,0.1952,0.1854,0.1854,0.1854,0,0.1213,0.1287,0.1316,0.1367,0.14,0.1417,0.1468,0.1502,0.1569,0.1591,0.1583,0.1691,0.1727,0.1804,0.1819,0.1843,0.1858,0.1842,0.1912,0.1918,0.1924,0.1947,0.1955,0.1855,0.1855,0.1855,0.1854,0,0.1295,0.1346,0.138,0.1446,0.1482,0.1533,0.157,0.1603,0.1618,0.1646,0.1712,0.1756,0.1814,0.1834,0.1848,0.1913,0.1908,0.1905,0.1891,0.1932,0.1954,0.1962,0.1856,0.1855,0.1855,0.1855,0,0,0.1338,0.142,0.1432,0.1462,0.1524,0.1564,0.1616,0.1674,0.1703,0.1749,0.1794,0.1866,0.1865,0.1899,0.1917,0.1951,0.1999,0.1945,0.1947,0.1954,0.2075,0.2077,0.2086,0.2005,0.2006,0.2008,0.2071,0,0.1393,0.1487,0.1515,0.1594,0.1642,0.166,0.1706,0.1749,0.1777,0.1822,0.1852,0.1903,0.1898,0.1918,0.1952,0.1986,0.2024,0.1982,0.2047,0.2049,0.2034,0.2097,0.2099,0.2157,0.208,0.2081,0.2082,0,0.1469,0.1518,0.1602,0.1659,0.1681,0.1721,0.1777,0.182,0.187,0.1888,0.1926,0.1942,0.1998,0.1981,0.2059,0.2029,0.2058,0.2079,0.2082,0.2089,0.2068,0.2107,0.2175,0.2184,0.2096,0.2095,0.2094,0,0.1494,0.158,0.1642,0.1667,0.1735,0.1763,0.1793,0.1841,0.1875,0.1924,0.1946,0.2,0.203,0.2072,0.2103,0.2087,0.2179,0.2163,0.2196,0.2195,0.2214,0.2213,0.2288,0.2231,0.2231,0.2231,0.2231,0,0.1552,0.1603,0.1654,0.1692,0.175,0.1782,0.1838,0.1869,0.1912,0.1957,0.1975,0.2016,0.2054,0.2101,0.2126,0.2187,0.22,0.2217,0.2223,0.2215,0.2213,0.2235,0.2232,0.2234,0.2233,0.2233,0.2232,0,0.1589,0.1625,0.1693,0.1753,0.1769,0.1809,0.186,0.1898,0.1927,0.1983,0.1998,0.2044,0.21,0.2135,0.2206,0.2222,0.229,0.2295,0.2274,0.2277,0.2307,0.2304,0.24,0.2415,0.2347,0.2348,0.2348,0,0.1624,0.1664,0.1728,0.176,0.179,0.184,0.1875,0.1908,0.1943,0.2004,0.2034,0.2092,0.214,0.2229,0.2268,0.2323,0.2329,0.2359,0.2338,0.233,0.2331,0.2328,0.2333,0.2363,0.2363,0.2364,0.2364,0,0.1684,0.17,0.1749,0.1805,0.1846,0.1891,0.1936,0.1961,0.2002,0.2041,0.2099,0.2136,0.2209,0.2267,0.2325,0.2356,0.2367,0.2371,0.2381,0.2374,0.2361,0.237,0.2284,0.2368,0.2368,0.2368,0.2367,0.2367,0.1722,0.1758,0.181,0.1864,0.1902,0.1944,0.1983,0.2018,0.2067,0.2129,0.2146,0.2207,0.2257,0.2337,0.2369,0.2418,0.2413,0.2428,0.2432,0.2436,0.2437,0.2353,0.2428,0.2428,0.2428,0.2428,0.2428,0,0.1783,0.1817,0.1867,0.193,0.1973,0.1981,0.2031,0.2067,0.2121,0.2167,0.2214,0.2281,0.2337,0.2381,0.2439,0.2469,0.2476,0.2483,0.2482,0.2489,0.2437,0.2422,0.2477,0.2477,0.2477,0.2477,0.2477,0.2477,0.182,0.1883,0.1905,0.1988,0.2021,0.2082,0.211,0.215,0.2187,0.2261,0.2308,0.2337,0.2382,0.2444,0.2496,0.2507,0.2528,0.2535,0.2547,0.2498,0.2492,0.2487,0.2474,0.2539,0.2539,0.2596,0.2596,0.2597]}]]